Flag for Germany Weather past 2 weeks in Neu-Ulm, Bavaria, Germany

Now
43 °F

Sprinkles. Partly cloudy.


Feels Like: 33 °F
Forecast: 35 / 43 °F
Wind: 26 mph from Northwest

Location: Laupheim Airport

Current Time: Apr 1, 2015 at 2:25:46 AM

Latest Report: Apr 1, 2015 at 1:20 AM


Visibility: N/A

Pressure: 29.92 "Hg

Humidity: 66%

Dew point: 32 °F

Location of Neu-UlmLocation

Historic Weather in Neu-Ulm — Graph

°F

Neu-Ulm temperature yesterday

Maximum temperature yesterday: 55 °F (at 1:20 PM)
Minimum temperature yesterday: 39 °F (at 10:20 PM)
Average temperature yesterday: 48 °F

Past Weeks' High & Low Weather Summary

 TemperatureHumidityPressure
High61 °F (Mar 18, 2:20 PM)100% (Mar 18, 4:20 AM)30.24 "Hg (Mar 18, 4:20 AM)
Low28 °F (Mar 20, 6:20 AM)31% (Mar 20, 4:20 PM)29.53 "Hg (Mar 25, 2:20 PM)
Average44 °F74%29.95 "Hg
* Reported Mar 16 11:20 PM — Apr 1 12:20 AM, Neu-Ulm, Weather by CustomWeather, © 2015

Note: Actual official high and low records may vary slightly from our data, if they occured in-between our weather recording intervals... More about our weather records

Advertising

Neu-Ulm weather history for previous 24 hours

 ConditionsComfort  
Time TempWeatherWind HumidityBarometerVisibility
12:20 AM
Wed, Apr 1
41 °FSprinkles. Passing clouds.15 mph76%29.89 "HgN/A
11:20 PM
Tue, Mar 31
39 °FPassing clouds.22 mph81%29.89 "HgN/A
10:58 PM39 °FRain showers. Fog.24 mph81%29.92 "Hg2 mi
10:20 PM39 °FSprinkles. Partly cloudy.7 mph87%29.92 "HgN/A
9:20 PM41 °FPassing clouds.13 mph81%29.89 "HgN/A
8:20 PM41 °FScattered clouds.12 mph87%29.89 "HgN/A
7:20 PM45 °FPartly sunny.15 mph76%29.83 "HgN/A
6:20 PM46 °FScattered clouds.20 mph82%29.80 "HgN/A
5:20 PM48 °FSprinkles. More clouds than sun.23 mph71%29.74 "Hg5 mi
4:20 PM46 °FSprinkles. More clouds than sun.35 mph87%29.74 "Hg4 mi
3:20 PM48 °FRain. Fog.31 mph82%29.68 "Hg2 mi
2:50 PM50 °FRain showers. Fog.32 mph82%29.68 "Hg2 mi
2:20 PM54 °FSprinkles. Broken clouds.36 mph67%29.65 "HgN/A
2:04 PM52 °FSprinkles. Broken clouds.38 mph72%29.65 "HgN/A
1:20 PM55 °FSprinkles. Broken clouds.36 mph63%29.65 "HgN/A
12:20 PM54 °FSprinkles. Broken clouds.35 mph72%29.65 "HgN/A
11:20 AM54 °FBroken clouds.43 mph67%29.62 "HgN/A
10:20 AM54 °FPartly sunny.44 mph63%29.62 "HgN/A
9:20 AM54 °FBroken clouds.41 mph63%29.59 "HgN/A
9:01 AM54 °FPartly sunny.44 mph67%29.56 "HgN/A
8:20 AM54 °FBroken clouds.37 mph72%29.62 "HgN/A
7:20 AM52 °FPassing clouds.30 mph82%29.65 "HgN/A
6:20 AM50 °FPassing clouds.26 mph82%29.65 "HgN/A
5:20 AM48 °FPassing clouds.26 mph87%29.65 "HgN/A
4:20 AM46 °FPassing clouds.21 mph82%29.74 "HgN/A
3:20 AM45 °FPartly cloudy.22 mph81%29.80 "HgN/A
2:20 AM45 °FLight rain. Partly cloudy.17 mph71%29.83 "HgN/A
Weather by CustomWeather, © 2015

See weather overviewHow to use our weather pages